Starlink 32192

operational
NORAD ID: 60316 Int'l Des: 2024-133 Owner: SPXS Country: US Constellation: starlink
LEOCIRCULAR

关于 Starlink 32192

正在加载描述...

实时位置

正在加载3D地球...

即将过境

高度历史

Altitude vs Time

uPlot chart will show altitude changes over time

两行轨道根数

1 60316U 24133R 25305.33207824 .00000555 00000-0 30872-4 0 9992
2 60316 53.1592 172.8856 0001191 83.8892 276.2244 15.30190606 72085
Epoch: Nov 1, 2025 • Age: 25 hours

当前状态

高度 484.4 km
速度 7.62 km/s
星下点 -28.98°S, 31.53°W
发射日期 Jul 28, 2024
运行时间 1.2 years
类型 internet

技术详情

分类 Payload
质量 730.00 kg
干质量 700.00 kg
总质量 730.00 kg
长度 0.30 m
直径 4.10 m
跨度 29.00 m
形状 Box + pan
制造商 SPXS
平台类型 Starlink V2M
阶段状态 In Orbit
所有者/国家 SPXS/US

大型星座

Loading constellations...